Home   Weather   Lillestrøm   Past weeks

Flag for Norway Past Weather in Lillestrøm, Norway — Yesterday and Last 2 Weeks

Now
64 °F

Mild.


Feels Like: 64 °F
Forecast: 48 / 57 °F
Wind: 7 mph from Southwest

Location: Oslo-Blindern

Current Time: Sep 29, 2016 at 3:46:17 PM

Latest Report: Sep 29, 2016 at 3:00 PM


Visibility: 22 mi

Pressure: 29.09 "Hg

Humidity: 45%

Dew Point: 42 °F

Location of LillestrømLocation

Past Weather in Lillestrøm — Graph

°F

Lillestrøm Temperature Yesterday

Maximum temperature yesterday: 62 °F (at 4:00 PM)
Minimum temperature yesterday: 53 °F (at 7:00 AM)
Average temperature yesterday: 57 °F

High & Low Weather Summary for the Past Weeks

 TemperatureHumidityPressure
High74 °F (Sep 15, 4:00 PM)99% (Sep 15, 8:00 AM)30.27 "Hg (Sep 15, 8:00 AM)
Low42 °F (Sep 24, 7:00 AM)50% (Sep 17, 4:00 PM)29.09 "Hg (Sep 29, 2:00 PM)
Average58 °F83%30.06 "Hg
* Reported Sep 14 2:00 PM — Sep 29 2:00 PM, Lillestrøm, Weather by CustomWeather, © 2016

Note: Actual official high and low records may vary slightly from our data, if they occured in-between our weather recording intervals... More about our weather records

Advertising

Lillestrøm Weather History for the Previous 24 Hours

Scroll right to see more
 ConditionsComfort  
Time TempWeatherWind HumidityBarometerVisibility
2:00 PM
Thu, Sep 29
64 °FScattered clouds.9 mph50%29.09 "Hg34 mi
1:00 PM62 °FRefreshingly cool.10 mph53%29.12 "Hg19 mi
11:00 AM59 °FLow clouds.5 mph92%29.15 "Hg43 mi
9:00 AM54 °FCool.1 mph98%29.21 "Hg8 mi
8:00 AM52 °FDrizzle. Cloudy.No wind98%29.26 "Hg2 mi
7:00 AM50 °FRain. Overcast.2 mph97%29.32 "Hg2 mi
6:00 AM50 °FRain. Overcast.2 mph97%29.41 "Hg2 mi
5:00 AM50 °FRain. Overcast.3 mph95%29.47 "Hg2 mi
2:00 AM51 °FCool.1 mph66%29.61 "Hg31 mi
1:00 AM54 °FCool.2 mph56%29.62 "Hg31 mi
12:00 AM56 °FRefreshingly cool.3 mph52%29.61 "Hg31 mi
11:00 PM
Wed, Sep 28
56 °FRefreshingly cool.5 mph53%29.64 "Hg31 mi
10:00 PM56 °FRefreshingly cool.6 mph56%29.63 "Hg31 mi
9:00 PM55 °FCool.1 mph61%29.63 "Hg31 mi
8:00 PM56 °FCool.2 mph62%29.63 "Hg31 mi
7:00 PM58 °FRefreshingly cool.2 mph56%29.60 "Hg31 mi
6:00 PM62 °FRefreshingly cool.3 mph53%29.58 "Hg31 mi
5:00 PM61 °FCool.3 mph68%29.56 "Hg22 mi
4:00 PM62 °FCool.6 mph63%29.54 "Hg22 mi
3:00 PM60 °FLight rain. Cloudy.5 mph75%29.55 "Hg28 mi
Weather by CustomWeather, © 2016

See weather overviewHow to use our weather pages